Theta_e
350 341 334 334 331 329 324 321 317 313 315 317 316 314 315 316 318 320 322 321 320 317 315 314 317 321 327 332 334 334 336 337 337 337 338 338 339 339 338 338 338 337 336 337 338 338 338 337 335 332 330 328 326 323 318 313 311 311 309 308 308 308 309 310 311 311 311 311 312 312 313 315 316 318 319 318 316 314 313 316 320 314 311 312 311
349 339 335 334 331 329 324 322 317 313 316 316 316 315 317 317 318 317 316 315 314 313 314 318 325 331 335 338 338 339 338 338 339 338 339 338 339 339 338 338 337 337 337 337 337 337 336 335 333 331 328 327 326 319 314 311 308 307 308 308 308 308 309 310 312 312 312 312 313 313 314 314 314 316 315 315 314 312 313 315 316 312 311 311 311
347 339 335 334 331 329 325 323 316 314 317 316 316 317 319 319 319 317 316 314 314 316 320 327 332 335 338 338 339 339 338 339 339 339 339 339 339 339 339 338 338 338 337 337 337 337 335 334 332 329 328 328 326 317 312 311 307 307 307 308 308 308 309 311 313 313 313 315 314 312 313 314 313 313 314 313 312 313 312 312 311 311 312 312 313
346 340 336 335 332 329 326 324 317 314 317 317 317 320 322 322 321 319 317 317 319 323 327 333 336 338 338 338 339 339 339 339 339 339 339 339 339 339 338 338 339 338 338 338 337 337 335 334 330 327 328 326 322 317 314 310 307 308 308 308 309 309 310 313 315 315 317 320 320 320 315 311 314 312 312 312 312 312 311 311 312 313 313 313 314
346 340 335 335 333 329 328 326 317 314 318 318 319 323 325 325 324 321 320 322 324 328 333 337 338 339 338 338 338 338 339 338 339 338 338 338 339 339 338 338 339 338 338 337 337 336 334 333 329 326 327 323 319 321 316 310 308 308 309 309 310 310 312 315 318 319 323 326 328 331 325 314 312 313 311 312 312 312 312 313 313 313 314 313 313
346 340 335 335 333 331 329 327 318 315 318 318 320 324 327 328 328 326 325 326 329 333 337 339 338 338 338 338 338 338 338 339 339 338 338 338 339 339 338 338 338 338 337 337 336 335 334 333 329 325 326 323 321 323 316 310 309 308 310 310 310 313 316 319 319 322 327 331 331 333 333 322 311 312 313 313 314 313 314 313 314 314 314 314 313
346 341 339 335 334 332 330 329 319 314 319 319 321 325 328 330 331 331 331 331 335 338 339 338 338 338 337 338 338 338 339 339 339 338 338 338 339 339 339 338 338 338 337 337 335 335 334 332 330 324 321 320 321 321 315 311 310 309 310 310 312 314 318 320 322 328 331 333 333 332 335 329 314 313 314 313 314 313 314 313 313 313 313 314 313
345 343 342 337 334 333 331 329 320 314 318 320 322 326 329 331 333 334 335 337 338 339 338 338 338 338 338 337 338 338 339 339 339 339 338 338 338 338 339 338 337 337 337 336 335 334 332 329 326 320 318 319 322 320 314 312 311 310 311 311 312 313 316 320 323 328 331 332 333 332 334 331 318 313 314 313 314 314 314 313 313 313 313 313 313
345 344 343 338 334 333 332 330 322 314 316 321 324 327 329 332 336 337 338 339 338 338 338 339 338 338 338 337 338 338 339 339 338 338 337 337 336 335 334 333 333 334 333 334 333 331 329 323 319 318 320 322 321 317 313 313 312 312 311 312 312 313 316 319 324 328 331 332 333 334 335 334 321 312 314 314 314 314 314 314 314 313 313 313 313
344 343 342 338 335 334 333 331 324 316 314 319 324 326 328 332 336 338 339 339 338 338 338 339 338 338 338 337 338 337 337 337 337 336 335 333 330 328 327 324 324 324 323 325 326 326 324 317 315 320 323 321 318 315 313 313 312 312 312 312 311 313 316 320 327 330 332 331 330 331 331 330 320 312 314 313 313 314 314 314 313 313 313 313 313
343 343 342 338 335 335 333 332 327 318 313 316 322 326 328 332 336 338 338 338 338 338 338 339 338 338 338 338 337 336 335 335 334 332 330 328 325 323 322 319 316 313 313 314 317 320 318 313 317 321 322 319 316 314 314 313 312 312 311 311 311 311 314 320 327 331 332 328 326 328 328 324 315 313 314 313 314 314 313 313 313 313 313 314 313
344 344 341 337 335 335 334 333 328 321 314 314 320 325 328 332 336 338 338 338 338 338 338 339 338 338 338 337 336 335 334 333 331 329 327 325 321 319 316 313 310 309 309 310 312 315 312 312 319 320 320 319 318 316 315 313 312 312 312 311 312 311 314 320 325 331 332 328 327 332 333 325 313 313 313 313 313 313 314 313 313 313 314 314 314
344 343 339 337 336 335 334 333 330 324 316 313 317 323 328 333 337 337 337 338 338 338 338 338 338 338 337 336 336 335 333 331 329 328 326 323 318 314 311 309 308 308 308 308 310 310 308 313 320 320 319 320 319 319 316 314 312 311 311 311 311 312 315 321 328 332 330 329 331 333 332 322 312 313 313 313 314 314 314 314 314 314 314 314 314
344 343 339 336 336 335 334 333 332 327 319 313 314 320 328 334 336 336 336 337 337 337 338 338 337 337 337 336 336 334 333 330 327 324 322 319 315 312 309 308 308 308 308 308 308 308 309 314 319 319 319 319 320 321 318 315 314 311 312 312 311 312 313 321 329 332 330 330 331 332 328 316 311 313 313 313 313 314 314 314 314 314 315 314 314
344 343 339 336 336 336 335 334 333 329 323 317 312 316 326 332 334 336 336 336 337 336 336 336 336 336 336 335 334 333 332 328 324 320 318 316 313 309 308 308 308 308 308 307 308 308 310 315 319 320 320 320 320 320 319 317 315 313 312 312 312 312 316 325 332 331 331 331 329 333 329 312 311 313 312 314 313 314 314 314 315 315 315 314 314
345 343 338 335 336 336 335 334 333 331 326 320 314 313 321 329 332 335 335 336 336 335 334 334 334 333 334 334 332 330 328 325 321 317 315 313 310 308 308 308 308 308 308 308 308 309 311 316 319 320 321 321 321 320 319 319 317 315 314 313 313 313 318 327 333 333 333 333 329 333 330 312 310 313 312 314 313 314 315 315 316 316 315 314 314
346 343 339 337 337 336 336 335 333 331 328 322 316 311 316 324 330 334 334 335 335 334 333 332 331 331 332 331 329 326 323 321 318 314 312 311 309 308 309 308 308 308 308 308 308 309 313 317 319 321 321 323 322 320 320 319 318 317 315 314 313 314 318 324 331 334 330 329 330 333 331 316 310 313 312 314 314 315 316 316 317 317 316 315 315
345 343 341 340 339 338 337 336 334 333 329 324 319 312 312 320 328 333 334 334 334 333 332 331 330 330 331 329 326 322 320 319 316 312 311 310 309 309 309 309 308 308 308 308 309 309 312 316 319 321 322 324 323 322 321 320 319 318 316 315 315 315 319 323 331 334 328 327 332 333 327 316 312 313 313 314 314 315 316 317 317 317 316 315 316
345 345 343 342 341 339 338 336 336 335 332 327 320 314 311 317 327 332 334 334 334 333 332 332 331 330 329 325 322 319 318 318 315 312 311 311 310 310 309 309 309 308 308 308 309 309 311 316 318 320 322 323 324 324 324 323 323 320 319 317 316 317 321 328 333 334 333 331 333 332 324 316 315 314 313 314 314 315 316 317 318 317 317 316 316
346 345 344 343 341 340 339 339 338 338 338 334 322 314 311 314 325 332 333 334 334 333 333 331 330 328 323 320 321 323 321 322 324 317 312 313 312 312 312 310 310 309 309 308 309 309 311 314 316 319 320 322 324 324 325 325 325 324 323 320 319 318 321 331 334 333 334 332 333 332 324 318 318 315 315 315 315 316 316 317 318 318 318 318 317
346 345 344 343 341 341 341 341 340 339 340 337 326 314 311 314 323 329 332 334 334 332 330 328 324 320 317 317 321 329 328 328 332 323 315 317 315 315 315 314 313 310 309 309 308 310 311 313 316 318 319 320 322 323 323 323 324 324 323 323 322 319 324 333 333 332 333 332 333 331 323 321 319 317 317 316 317 317 317 317 318 318 319 318 318
344 344 343 342 342 341 342 341 340 340 338 338 330 314 311 319 324 328 331 332 330 329 330 327 321 316 317 319 321 329 332 328 326 325 323 322 320 318 319 317 317 315 313 312 310 310 309 312 315 316 319 320 322 326 327 325 323 323 321 322 321 323 331 334 330 331 332 332 335 330 322 320 318 318 319 319 320 318 318 318 318 319 319 319 318
343 343 342 342 342 341 340 340 339 339 337 337 331 320 320 325 327 328 330 329 329 332 331 329 328 327 327 327 328 331 333 329 323 326 327 322 321 320 320 320 320 319 318 318 317 314 312 311 312 313 315 317 323 331 333 329 326 325 323 321 322 329 335 334 331 331 331 332 334 328 320 318 318 319 320 321 322 321 320 319 319 319 319 319 318
342 342 341 341 340 338 338 338 337 336 335 335 333 330 330 331 331 330 329 329 332 335 333 330 332 332 331 331 332 330 331 332 329 331 332 329 328 327 327 327 327 325 320 323 325 321 318 316 315 315 313 317 327 333 333 331 330 327 327 328 329 333 336 334 333 333 332 333 333 329 323 319 319 320 321 322 323 323 323 321 320 320 319 319 318
341 341 340 338 337 336 336 335 335 334 334 334 333 332 333 334 333 332 332 332 333 335 332 326 326 328 329 329 330 330 334 337 335 334 336 335 334 334 334 333 334 333 329 330 331 327 326 325 325 323 321 325 331 333 333 332 332 331 332 333 334 335 334 333 334 332 331 333 333 331 326 321 320 322 323 324 323 323 323 322 322 321 320 319 318
340 339 338 337 335 335 335 334 333 333 334 334 333 332 333 335 333 330 333 332 330 330 327 322 324 327 328 329 331 334 336 338 337 336 338 337 336 336 336 335 336 338 336 335 335 332 331 332 332 330 330 331 331 331 332 333 332 332 333 334 335 335 334 333 334 333 332 332 333 333 328 322 320 321 323 325 325 325 325 324 324 324 323 321 318
337 336 335 335 334 334 334 333 333 333 334 333 333 333 334 337 334 331 332 330 325 324 325 326 327 328 328 331 335 337 338 339 338 336 337 338 338 337 338 337 337 338 337 336 337 336 334 335 334 333 332 332 332 332 332 332 331 330 331 332 333 334 334 334 334 333 332 332 333 332 329 324 320 320 324 326 327 327 327 327 327 326 325 323 320
335 334 334 334 334 334 333 334 333 333 333 332 332 333 334 336 333 330 331 329 328 328 327 326 326 327 330 334 335 337 339 339 338 338 337 338 338 337 338 338 337 338 337 336 337 337 336 336 335 334 333 332 334 334 333 333 333 331 330 329 330 333 334 334 332 332 332 331 330 328 325 322 321 321 324 327 328 329 329 329 329 329 328 326 323
334 333 333 334 334 334 334 334 334 334 333 333 334 334 333 332 329 330 330 329 332 333 330 328 331 333 334 335 335 335 337 337 337 337 338 338 337 336 337 338 337 337 337 338 338 337 337 338 337 335 334 334 334 334 334 334 334 334 333 331 332 333 333 333 333 333 333 332 332 330 326 324 322 323 325 328 329 329 330 330 330 330 329 328 326
334 334 334 335 334 334 334 334 334 335 334 334 335 335 333 332 333 333 331 332 334 334 334 334 335 336 335 335 335 334 335 336 335 335 336 335 335 335 336 337 336 335 334 337 336 335 336 336 337 337 336 336 335 335 335 335 334 334 334 334 334 334 334 334 333 334 334 333 333 333 332 330 327 326 327 329 330 331 331 331 330 330 330 329 328
334 335 335 335 335 335 336 335 335 336 335 336 336 336 336 337 338 336 335 336 336 336 338 338 337 337 336 335 336 335 335 336 335 335 334 333 334 334 333 334 334 332 330 333 332 331 332 333 335 336 336 336 335 336 336 335 335 334 334 334 333 334 335 335 335 334 334 333 333 332 333 333 332 330 329 329 330 331 331 331 331 331 331 330 329
335 336 336 334 335 335 335 335 335 336 336 337 336 337 339 338 338 337 336 335 336 339 339 338 338 336 334 335 335 334 334 335 335 335 333 333 334 333 332 332 332 331 330 332 332 331 331 331 332 332 331 333 335 337 337 337 337 336 335 334 334 334 333 334 334 334 333 334 334 333 333 333 334 333 332 331 330 330 330 330 331 331 331 331 330
336 336 336 335 335 334 333 333 334 335 337 337 337 338 338 338 338 337 336 335 336 339 338 337 336 335 334 334 335 334 333 334 335 335 334 334 334 333 333 333 332 332 331 331 331 332 333 333 333 332 333 333 333 335 336 338 337 337 336 336 335 335 335 335 334 334 334 334 334 334 333 333 334 334 333 333 332 331 329 329 330 330 331 331 331
337 337 337 336 335 335 334 334 335 337 337 337 337 337 337 338 338 338 338 337 337 338 337 336 336 336 336 335 334 334 334 334 335 334 334 334 335 334 333 333 333 331 331 332 333 334 334 334 334 335 336 334 333 335 336 337 337 336 336 336 336 336 336 336 335 335 334 334 334 333 333 332 334 334 333 333 333 332 330 330 329 330 331 331 331
338 338 337 337 337 338 338 337 338 337 337 337 337 337 338 338 338 338 338 339 338 338 337 337 336 336 336 336 335 333 333 333 332 332 333 334 337 337 335 333 332 332 332 333 333 333 334 335 334 334 334 334 334 335 335 336 336 336 336 335 335 335 335 336 335 335 334 334 334 333 334 334 334 334 334 333 333 333 332 331 331 330 330 331 331
338 338 337 337 338 339 339 338 338 337 337 337 337 337 338 339 338 337 338 338 339 338 337 336 336 335 335 336 333 330 332 331 329 331 332 334 336 338 336 333 331 332 332 332 332 334 335 334 334 333 333 333 335 336 336 336 335 336 336 334 334 334 334 334 334 334 334 335 334 334 334 333 334 334 334 334 334 333 332 332 332 331 330 331 331
337 337 337 338 338 338 338 338 337 337 337 336 336 336 336 339 338 337 337 337 338 338 336 335 335 335 335 335 333 330 331 331 331 330 332 333 335 337 335 333 332 332 331 331 333 336 336 334 333 333 334 334 334 335 337 336 335 335 336 335 335 334 333 334 334 333 332 333 334 335 334 333 334 335 334 335 334 333 332 333 332 332 331 331 331
336 337 338 338 337 337 337 337 336 335 336 336 337 336 337 338 337 336 337 337 337 336 335 335 335 335 336 335 334 332 331 331 332 332 333 334 335 335 335 334 334 334 333 333 334 337 337 334 333 333 334 334 333 334 335 336 335 334 335 335 334 333 332 333 333 333 333 334 334 334 334 334 334 335 335 336 335 334 333 332 331 331 332 331 331
337 337 338 338 337 337 336 336 335 334 336 336 337 337 337 337 336 336 337 337 336 335 335 336 335 335 336 335 335 334 333 334 333 333 333 334 335 335 335 335 334 334 335 334 335 336 335 333 332 332 332 333 333 334 334 334 334 333 333 332 332 333 333 333 332 332 333 333 333 333 333 334 334 335 335 335 335 334 333 333 331 332 332 331 331
337 337 337 337 337 336 336 336 334 334 335 335 337 338 338 337 337 337 337 337 337 336 335 336 336 336 336 336 335 335 335 335 334 334 334 334 335 335 335 335 335 335 335 335 335 335 334 333 332 332 333 333 333 334 333 333 333 333 333 333 332 332 333 332 331 330 331 331 332 333 333 334 335 334 334 332 331 330 331 332 332 331 332 331 330
337 337 336 336 336 335 335 334 333 335 336 336 337 339 339 338 337 337 338 337 336 335 335 335 335 335 335 335 335 335 335 335 334 335 335 334 335 336 335 334 335 335 335 335 335 334 334 333 333 333 334 334 334 333 332 331 332 334 334 334 333 333 334 334 332 331 332 333 333 333 333 333 332 331 331 330 328 326 326 330 332 332 332 332 331
337 336 336 335 335 336 335 332 332 336 336 336 336 338 338 338 337 337 336 336 335 335 334 332 331 332 332 332 332 332 333 333 334 334 334 334 334 334 335 334 334 334 334 334 334 333 333 334 333 333 334 334 334 333 332 332 333 334 333 333 332 332 332 333 334 334 334 334 334 334 334 333 332 330 330 332 330 328 327 330 332 333 333 333 332
336 336 336 336 335 336 336 334 334 336 336 336 336 337 337 338 337 336 335 334 333 333 332 330 330 330 331 331 330 330 331 331 331 331 331 330 330 331 332 333 333 333 333 333 333 333 332 332 332 332 332 333 333 334 333 332 332 332 331 332 332 332 330 330 333 334 332 332 332 334 335 334 333 332 331 331 331 332 331 330 331 331 332 332 332
336 336 336 336 335 335 336 335 335 336 336 336 336 336 335 335 335 334 333 332 331 332 331 332 332 332 332 332 330 330 330 329 328 328 328 328 328 327 328 329 329 330 331 330 331 330 330 329 329 329 329 330 331 332 332 332 331 331 331 331 331 331 331 330 331 331 330 331 332 333 334 332 332 331 329 328 330 332 332 332 331 331 332 332 331
335 335 335 335 335 335 335 335 336 336 335 336 337 336 335 333 333 333 333 332 332 332 332 332 333 332 332 331 329 329 329 328 328 328 328 328 327 326 326 325 325 325 326 326 327 327 328 328 327 328 327 328 328 328 329 330 331 331 331 331 331 331 330 330 330 330 329 330 331 331 331 331 332 332 330 329 331 331 331 332 332 331 332 332 332
334 334 334 335 335 334 335 335 335 335 336 336 335 335 335 335 334 334 333 333 334 333 332 332 331 330 330 329 328 328 328 328 328 327 327 326 325 325 325 324 323 323 322 323 324 324 325 326 325 325 325 325 326 326 327 328 328 328 329 330 330 331 330 329 329 329 328 329 329 329 330 330 330 331 331 331 331 331 331 331 331 332 332 332 331
333 333 333 333 333 333 333 333 332 332 333 333 333 333 333 333 333 333 332 334 333 332 332 331 329 329 328 328 328 328 328 327 327 326 325 324 324 323 322 322 321 320 320 321 321 319 319 321 321 321 322 322 323 324 325 326 326 327 328 329 328 329 329 329 329 329 328 328 328 329 329 328 329 329 330 330 330 330 331 330 330 331 332 332 332
333 332 332 332 332 332 332 331 330 330 330 329 330 331 330 330 330 330 330 331 331 330 329 328 329 329 327 327 327 327 327 326 325 323 322 321 320 319 318 317 316 315 317 318 316 314 313 315 316 318 319 320 321 321 322 324 324 325 326 326 326 326 326 328 328 328 328 328 328 328 328 328 328 329 329 329 329 330 330 330 330 330 331 332 332
332 332 332 331 331 330 330 329 329 329 328 327 327 328 328 328 329 328 328 327 327 327 326 326 327 327 326 325 325 325 324 323 321 319 318 317 316 316 315 313 312 312 314 314 312 312 312 313 315 315 316 316 317 318 320 321 321 322 322 322 323 324 325 326 327 327 327 327 328 327 328 328 328 328 328 328 329 329 329 330 330 330 330 330 331
332 331 331 330 329 328 328 328 328 327 326 325 325 326 326 326 327 326 326 325 325 324 324 325 325 324 324 324 323 323 321 319 317 316 315 315 315 314 313 311 311 311 311 311 310 310 310 313 313 311 311 312 313 314 316 318 318 319 319 319 321 322 323 324 324 325 325 325 326 327 327 327 327 327 327 327 328 328 328 329 330 330 330 330 331
332 331 330 328 327 326 326 326 326 325 325 324 324 324 324 324 324 324 323 323 323 323 323 323 324 323 322 322 321 319 317 316 315 314 314 314 313 312 310 309 308 308 308 308 307 306 308 311 310 308 309 310 310 312 314 315 316 316 317 318 318 320 320 321 322 322 322 323 323 324 325 325 325 325 326 326 327 327 327 328 328 329 330 331 331
Wind_Speed
13 15 19 15 12 9 7 6 4 5 4 6 8 9 11 13 14 14 14 13 12 12 12 13 14 16 17 15 14 13 12 12 12 12 11 11 11 11 11 11 11 10 10 10 11 11 11 10 10 10 9 9 9 9 9 9 7 6 7 8 9 10 11 13 14 16 16 16 17 17 17 17 16 16 15 14 13 12 12 14 11 8 9 9 9
15 18 19 15 13 10 8 7 5 5 5 8 9 10 12 13 14 14 15 14 13 14 15 15 16 17 15 14 13 12 12 12 12 12 11 11 10 11 11 11 10 10 10 10 11 11 10 10 10 10 10 9 10 10 10 9 7 7 8 9 10 11 12 13 16 17 17 16 16 17 17 17 16 16 15 14 13 11 11 13 11 9 8 8 8
18 19 20 16 14 10 9 8 6 5 6 9 11 12 13 13 14 14 15 14 15 15 16 16 16 15 14 13 12 12 12 12 11 11 11 11 10 11 11 10 10 11 10 10 11 10 9 10 10 11 10 10 10 10 10 9 8 8 9 11 12 13 13 14 17 18 18 17 16 16 16 15 15 15 13 12 11 10 10 11 11 10 9 9 10
18 19 20 17 15 11 9 8 7 6 7 10 12 13 13 14 15 15 16 15 16 17 17 16 15 14 13 13 12 12 11 11 11 10 11 10 10 10 10 10 9 10 10 10 10 9 9 10 11 11 10 11 11 11 11 10 9 9 11 12 13 14 14 17 19 19 20 19 17 14 13 13 13 12 12 11 11 10 10 10 10 11 11 11 12
18 20 20 17 16 12 10 9 8 7 8 11 12 13 13 14 15 16 16 16 17 16 16 14 14 13 12 12 11 11 10 10 10 10 10 9 9 9 10 9 9 9 9 10 9 8 9 9 10 10 10 12 12 11 11 11 10 11 13 14 14 14 16 20 20 20 21 20 18 13 9 10 11 11 11 11 11 11 11 10 11 11 11 11 12
19 20 20 18 16 13 11 10 9 8 10 11 12 12 13 14 15 16 16 16 16 15 14 13 13 12 12 11 11 10 10 10 10 9 9 9 9 9 9 9 9 9 9 8 8 8 8 8 9 9 9 9 10 11 11 11 12 12 13 14 14 16 18 20 21 21 22 21 18 12 7 7 9 11 12 12 11 11 11 11 11 10 11 11 11
18 19 18 17 17 14 12 11 10 9 11 12 12 12 12 14 14 15 16 16 15 14 13 12 12 12 11 11 10 10 9 9 9 9 9 9 9 9 9 8 8 8 8 7 7 7 7 7 7 7 7 7 8 10 11 12 13 13 14 14 14 16 16 18 21 21 20 18 13 8 5 4 7 10 10 10 10 10 10 10 10 9 9 9 10
18 17 15 16 17 14 13 12 11 10 11 12 12 12 12 13 14 15 15 15 14 13 13 12 11 11 10 10 9 9 9 9 8 9 8 8 8 8 8 7 7 6 6 5 5 5 4 5 5 6 6 6 7 9 11 12 13 14 14 14 14 14 15 17 19 20 19 15 9 7 7 4 6 9 8 9 9 9 9 10 9 8 8 8 9
18 17 14 16 17 14 14 12 12 11 10 12 11 11 12 13 15 15 15 14 13 13 12 11 11 11 10 9 9 8 8 8 8 7 7 6 6 6 5 4 3 2 2 1 2 2 2 3 4 6 6 6 7 9 10 12 13 14 14 14 15 15 17 18 19 20 17 11 6 6 8 3 5 9 8 8 9 8 9 10 9 8 8 7 7
19 16 12 17 18 15 14 12 12 11 11 12 11 12 12 14 16 15 15 14 13 12 12 11 10 10 10 9 8 8 7 7 6 5 5 4 3 3 3 3 2 2 2 2 2 2 2 3 5 8 7 7 8 9 10 12 13 14 14 14 15 16 17 19 20 19 11 5 4 6 9 6 5 8 8 7 8 9 9 10 9 8 8 7 7
18 16 13 18 19 15 14 12 12 11 11 11 11 12 13 15 16 15 14 14 13 12 11 11 10 9 9 8 7 6 5 5 4 3 3 3 3 3 3 3 2 2 1 1 1 1 1 4 8 9 8 8 9 9 10 12 12 13 13 13 13 13 15 16 18 14 7 4 5 7 5 4 6 7 7 7 8 9 9 8 8 8 8 8 8
17 16 15 19 18 15 15 13 12 11 11 11 11 12 13 16 16 15 14 14 13 12 11 10 9 8 8 6 6 5 3 3 2 2 2 2 2 2 2 2 2 1 2 2 2 2 2 6 10 10 9 9 9 9 10 11 12 12 11 12 11 11 12 15 17 10 4 3 6 8 3 2 6 6 6 7 7 8 8 7 8 8 9 9 9
17 15 15 20 19 16 15 13 12 11 11 11 12 12 14 16 15 14 13 13 12 11 10 9 8 7 6 5 4 3 2 1 1 2 2 2 2 2 3 3 2 3 3 4 5 4 5 9 11 11 10 9 9 9 10 10 11 11 10 11 10 11 12 15 16 7 2 3 6 6 3 0 5 5 5 6 6 7 7 7 8 9 9 9 9
16 13 15 20 19 16 15 13 12 11 11 11 11 13 15 16 15 14 13 12 12 10 9 8 7 6 5 4 3 2 1 0 1 1 2 2 2 3 3 3 3 4 4 5 5 6 8 10 12 11 10 8 8 8 9 9 9 10 10 10 9 10 11 14 13 4 3 3 4 3 2 3 5 4 4 4 6 6 6 7 8 8 8 8 8
15 13 14 19 18 17 15 13 12 11 11 11 11 13 15 15 14 14 13 12 11 9 8 7 6 5 4 3 2 2 1 0 1 1 2 2 3 3 4 3 4 5 5 6 6 6 9 12 12 11 10 8 7 7 8 8 8 9 9 8 8 7 9 14 9 1 3 3 4 3 4 5 5 4 3 4 6 6 6 6 7 8 7 7 7
15 13 13 17 17 16 15 13 12 11 10 11 11 12 15 16 15 14 13 12 10 9 8 6 5 4 3 2 1 1 1 1 1 2 3 3 4 4 4 4 4 5 5 6 6 7 8 11 12 11 10 8 7 6 7 7 7 7 8 7 7 7 8 14 9 2 3 1 3 3 4 6 6 3 3 4 5 5 6 6 7 7 6 6 7
16 14 14 15 14 13 14 13 12 11 11 11 11 12 14 16 16 15 13 12 10 9 8 6 5 4 3 1 1 1 1 1 2 3 4 4 4 4 5 5 5 4 5 5 6 7 8 9 10 10 9 8 7 6 6 5 5 5 5 6 6 7 7 11 10 1 0 2 3 2 5 6 5 3 3 3 4 5 6 6 6 6 5 6 7
16 15 15 14 12 11 11 11 11 10 10 11 12 12 13 16 17 15 14 12 10 9 8 6 5 4 2 0 1 1 2 2 3 4 5 5 4 5 5 6 5 5 4 5 6 7 7 7 8 8 8 8 6 5 5 4 4 3 3 4 5 7 7 9 10 1 3 3 3 2 5 6 5 4 4 3 4 4 5 6 6 6 5 6 7
16 15 15 14 13 11 10 10 9 8 8 9 11 13 14 17 18 15 14 12 10 9 7 6 4 2 1 1 2 2 3 4 4 4 5 5 5 5 5 6 5 5 4 5 5 6 6 6 6 6 5 6 5 4 3 3 2 1 1 2 4 5 6 10 8 1 3 2 1 6 6 6 5 5 5 4 4 4 5 6 6 6 6 6 7
15 15 15 14 13 12 11 11 10 9 7 7 10 13 14 17 19 16 14 12 10 8 6 5 3 2 2 3 5 4 4 6 5 3 5 5 5 4 5 5 5 5 5 5 5 4 4 4 4 3 3 3 3 2 1 1 1 0 1 1 1 3 3 6 3 1 2 3 2 7 7 6 6 6 6 5 5 5 5 5 6 6 6 6 7
14 14 13 13 14 13 12 11 12 11 9 7 9 13 15 17 19 16 14 12 9 8 5 3 1 2 4 5 6 5 4 5 3 1 4 5 4 4 4 5 5 4 5 5 5 4 3 1 2 1 0 1 3 2 1 2 2 2 2 2 2 3 1 2 1 2 3 4 4 9 7 6 7 7 7 6 6 6 6 6 6 6 6 7 7
15 13 12 13 13 13 12 11 11 11 10 8 8 13 15 15 16 15 11 9 8 7 5 2 2 4 5 6 7 6 3 2 2 2 3 4 4 4 4 4 5 5 5 5 5 5 3 2 2 2 2 3 4 3 2 5 5 5 5 4 4 4 3 3 3 2 4 2 6 11 9 8 9 9 9 7 7 7 6 7 6 6 6 7 8
15 14 13 13 12 12 12 12 11 11 9 7 8 11 13 12 13 13 10 9 7 6 5 3 3 4 4 5 6 5 2 2 4 4 2 3 4 4 4 5 5 5 5 5 5 5 5 3 3 4 4 4 4 3 4 10 10 8 7 4 3 3 4 7 4 3 5 4 9 13 10 10 11 10 10 9 8 7 7 7 7 7 7 7 8
16 14 13 12 11 10 11 12 11 10 8 8 9 10 11 12 11 12 11 9 6 5 5 5 5 6 5 4 4 3 2 1 2 2 1 3 3 3 4 4 5 6 6 5 5 5 4 4 4 5 5 4 3 0 6 10 11 11 9 6 4 4 6 7 7 6 6 6 12 15 12 11 11 11 11 10 9 8 7 7 7 7 7 7 8
16 13 13 10 10 11 11 11 11 12 10 10 11 12 12 12 11 11 10 9 7 6 6 7 7 7 5 3 2 1 1 0 1 1 1 1 1 3 3 4 5 6 6 6 7 6 5 6 5 5 5 3 3 6 7 7 8 8 8 7 5 6 8 7 8 9 7 7 13 16 14 12 12 11 11 11 10 10 9 9 8 7 7 7 7
15 13 13 11 11 12 12 12 13 14 13 12 13 13 12 12 11 9 8 9 9 8 8 8 7 5 4 3 3 2 2 1 1 1 0 0 2 2 3 4 4 4 4 4 5 6 6 7 6 7 4 2 7 8 8 8 8 7 7 8 8 8 8 7 9 10 10 9 13 17 16 13 12 13 12 12 13 12 12 11 10 9 8 7 7
15 14 13 12 13 14 13 13 14 15 14 14 14 13 11 10 11 10 9 9 9 11 9 7 6 6 5 4 3 3 1 1 2 2 1 1 2 2 2 3 3 3 4 1 2 4 3 4 5 6 5 5 7 7 8 10 10 9 9 9 9 10 9 9 10 10 11 10 13 18 17 15 15 15 14 14 14 14 14 13 13 12 10 8 8
16 15 15 13 14 14 14 13 13 14 15 15 14 14 11 10 12 12 11 10 10 9 8 6 6 6 5 3 3 3 1 1 2 2 2 2 3 2 1 2 2 3 5 3 3 4 3 4 5 5 6 6 7 8 8 9 10 10 10 10 10 11 11 12 13 12 13 13 15 19 18 18 18 17 15 15 15 15 15 15 15 13 11 10 9
17 17 16 15 15 15 15 15 15 14 15 15 14 15 14 13 13 11 11 11 10 9 7 7 6 5 4 4 3 3 2 1 1 1 2 2 3 2 1 2 2 2 3 3 3 4 3 4 5 5 6 6 7 8 8 8 9 10 11 10 11 12 13 14 15 14 14 14 15 18 19 18 17 16 16 16 17 16 17 17 17 14 11 12 11
18 17 16 16 16 16 17 17 16 15 14 16 16 15 14 13 12 11 11 11 10 9 7 6 5 4 4 3 3 3 2 2 1 1 2 2 2 2 2 2 3 3 2 3 4 4 4 4 5 5 6 7 7 7 8 9 10 10 10 11 11 12 13 14 13 13 14 14 14 17 19 20 18 17 18 18 19 19 18 18 18 16 13 14 13
18 18 17 17 17 17 17 16 15 14 13 14 15 14 13 12 12 12 12 10 10 8 6 5 4 3 2 1 2 2 1 2 1 1 1 2 2 2 2 2 3 5 4 4 5 5 5 5 5 6 6 8 8 7 9 10 10 11 11 11 12 12 13 13 13 14 15 15 16 16 18 21 21 19 20 20 20 20 20 19 19 18 16 15 15
17 17 16 17 18 17 16 14 13 14 14 14 14 14 13 12 11 11 10 9 9 8 6 5 4 2 1 1 1 1 1 1 0 1 1 2 2 3 3 3 4 5 4 4 5 6 5 5 6 7 8 8 8 8 9 10 10 11 11 11 12 13 13 14 16 15 15 15 16 16 17 19 22 21 21 21 20 21 21 20 19 19 18 17 16
16 16 16 16 17 16 15 14 13 16 16 14 14 14 13 13 11 9 9 9 9 7 6 4 3 2 2 1 0 1 0 0 0 1 1 2 3 3 4 4 5 5 5 5 5 6 6 6 7 7 8 9 9 9 9 10 10 10 11 11 12 13 13 15 16 16 16 16 17 19 18 17 19 21 22 21 21 21 21 20 20 20 19 19 18
15 15 15 16 16 15 14 14 14 16 16 14 15 13 13 13 11 9 9 9 8 7 6 4 3 3 2 1 1 1 0 0 1 1 1 2 3 4 5 5 5 5 5 6 5 6 6 7 7 7 8 9 9 8 9 10 11 11 11 12 12 13 14 15 15 16 16 16 18 20 19 17 16 20 22 21 22 22 20 19 20 20 20 20 19
14 16 17 16 15 14 13 13 13 14 14 13 13 13 13 13 11 10 10 9 8 7 6 4 4 3 2 1 1 1 1 1 1 1 2 2 3 4 5 5 6 6 6 6 6 6 6 7 8 8 9 10 9 9 10 10 11 12 12 13 13 14 15 15 16 16 16 16 17 17 18 18 17 19 20 19 21 22 20 20 20 19 20 21 21
14 14 15 15 13 13 12 12 12 12 13 13 12 12 13 12 11 11 10 10 9 7 5 4 3 2 2 1 1 1 0 0 1 1 1 2 2 3 5 6 6 6 6 6 6 6 7 8 8 10 10 10 10 10 11 11 12 12 13 14 14 15 16 16 17 17 16 17 17 17 18 18 17 18 18 18 20 22 22 22 21 20 21 21 22
11 10 12 12 10 10 9 10 11 10 11 12 11 11 12 12 11 10 9 9 8 7 5 4 3 3 2 1 1 0 1 0 0 1 2 2 3 4 5 6 6 6 6 6 6 6 8 8 9 9 10 10 11 11 11 12 12 12 14 15 15 16 17 17 17 18 18 18 17 18 18 17 17 18 18 18 18 19 21 22 22 22 22 21 22
10 11 10 9 9 9 9 9 9 8 9 11 11 11 12 10 9 9 8 7 7 6 5 4 3 2 2 2 1 0 0 0 1 2 2 2 3 4 5 6 6 6 6 6 7 6 7 9 10 10 10 10 11 11 12 13 14 13 14 14 15 17 16 15 16 16 17 17 16 16 17 17 16 16 16 17 17 17 20 22 22 22 23 23 23
10 9 8 8 10 10 9 8 8 8 8 10 11 10 11 9 9 8 7 7 6 6 5 4 3 3 3 2 2 1 1 0 1 2 2 2 3 4 5 5 5 6 6 6 7 7 8 10 11 12 11 11 11 11 12 13 14 14 14 14 14 15 14 14 14 14 14 15 15 16 16 16 15 15 15 16 16 17 19 22 23 23 24 24 23
10 9 8 8 10 10 10 8 8 7 7 8 8 8 9 9 9 8 7 7 6 5 5 4 4 4 3 2 2 2 2 1 1 2 2 2 2 3 4 5 5 5 6 6 6 7 8 9 10 10 10 10 10 11 12 13 14 15 15 15 15 15 15 15 14 13 13 14 14 15 15 15 15 15 15 16 17 18 19 21 23 24 25 25 24
12 11 10 8 9 10 10 9 8 6 6 7 7 9 8 8 9 8 7 6 5 4 3 4 4 4 4 4 3 2 2 1 1 0 1 1 1 3 4 4 4 5 5 5 6 6 7 7 8 8 8 9 10 11 12 13 14 14 15 16 17 16 15 15 15 14 14 13 13 14 15 16 16 16 17 18 19 20 19 20 21 22 23 24 24
11 11 11 10 10 11 11 11 9 7 6 7 8 9 8 8 8 6 6 6 5 3 2 3 4 4 4 3 2 2 2 1 2 3 4 4 3 3 3 4 5 5 5 6 6 6 6 6 6 7 7 8 9 10 13 13 12 13 16 17 16 14 12 13 14 13 12 13 14 14 15 16 17 17 18 19 20 20 19 18 19 21 22 22 22
13 12 11 10 10 10 11 11 10 7 6 6 7 8 8 8 7 5 4 4 4 4 2 2 2 3 3 3 2 3 3 4 5 5 6 6 5 5 5 7 8 8 9 9 9 8 8 8 8 8 8 8 8 8 11 12 12 14 15 16 15 15 14 10 9 11 14 16 16 14 15 16 17 17 18 18 18 19 19 19 19 20 21 22 23
14 13 11 10 10 9 8 9 8 6 6 6 7 7 6 6 5 5 4 3 4 4 4 3 3 4 4 4 4 4 5 7 7 6 6 6 7 6 6 8 10 10 11 11 12 11 11 12 12 12 12 12 11 10 8 8 11 13 13 15 15 14 13 10 12 16 16 15 15 14 16 19 18 18 19 19 18 18 19 20 20 20 21 23 25
14 12 9 9 10 9 9 8 7 7 7 7 7 6 5 4 4 5 6 6 6 4 4 3 4 4 5 6 6 6 6 6 7 7 7 8 9 9 7 7 7 9 10 10 11 11 11 12 12 13 13 13 14 14 11 9 10 11 11 15 13 11 14 16 19 20 16 13 14 15 17 18 18 19 20 19 19 18 19 19 20 22 22 23 25
16 14 10 10 10 9 9 8 8 8 8 7 6 6 5 5 5 6 6 5 4 2 2 4 4 4 6 8 7 7 7 7 9 9 10 11 11 11 9 7 6 8 8 8 8 9 10 10 11 11 11 11 12 13 13 11 11 10 10 13 12 12 18 21 21 20 19 18 17 16 17 17 18 19 19 19 19 19 20 20 21 22 23 25 25
17 16 14 11 9 7 7 7 7 8 8 6 5 5 4 4 5 4 3 2 3 4 6 7 7 7 8 8 7 7 8 9 11 12 12 13 12 10 9 7 6 6 6 6 6 7 7 7 8 8 8 8 9 10 11 11 11 9 9 12 13 13 16 18 20 21 22 22 19 18 18 17 17 17 18 19 19 20 21 23 23 22 23 25 25
19 18 14 11 9 7 8 7 7 6 6 5 5 5 4 5 5 4 4 3 4 7 8 8 9 8 7 7 7 8 9 11 12 11 9 8 7 6 5 5 4 4 5 4 4 5 4 4 5 5 5 5 6 7 9 10 11 11 11 12 13 13 14 16 18 20 22 24 23 21 18 17 18 18 19 19 20 21 22 23 23 22 23 25 25
21 16 12 12 11 10 9 8 7 6 6 6 6 6 5 5 5 4 3 2 3 4 4 5 6 5 4 6 7 7 10 11 9 5 4 5 5 5 6 7 7 7 6 4 4 6 6 6 7 7 6 5 5 6 7 8 10 11 12 12 12 13 14 15 16 17 20 22 23 21 20 20 21 21 19 19 20 20 21 22 23 23 24 26 26
18 13 12 13 12 10 9 7 6 6 6 7 7 7 6 5 5 5 3 2 2 1 2 4 4 2 4 6 7 7 7 6 4 5 6 6 6 7 7 8 9 8 7 6 6 7 7 7 7 7 7 6 6 5 5 7 8 9 10 11 12 13 14 15 16 18 19 20 22 23 23 23 23 23 20 19 20 21 21 22 24 24 25 26 25
16 13 13 12 10 9 8 7 7 6 5 6 6 6 6 6 5 5 4 3 2 1 2 4 4 2 3 4 4 3 2 3 5 6 6 6 7 9 9 10 9 9 8 8 8 9 8 7 8 8 8 8 7 6 6 7 7 7 8 9 10 11 13 14 16 18 19 20 22 24 24 23 24 24 22 21 22 22 23 24 24 24 24 26 25
Wind_Direction
148 169 159 157 169 166 157 134 120 103 110 118 115 121 123 125 126 127 128 127 125 119 113 108 105 105 104 101 100 101 100 97 95 94 92 89 89 87 85 87 89 85 84 89 89 87 81 71 60 53 44 38 36 32 29 23 21 34 56 73 78 83 92 99 105 106 105 104 105 106 106 107 107 107 106 103 99 97 95 91 83 77 76 72 66
147 164 156 156 164 164 154 131 119 108 116 119 119 124 122 121 120 121 121 120 117 112 108 106 105 106 103 99 99 100 99 97 95 95 93 91 88 87 85 88 91 88 88 90 89 85 73 62 53 45 38 36 37 35 31 29 38 58 79 90 89 94 97 103 106 103 101 100 102 104 105 105 105 104 103 101 97 93 87 86 88 85 74 68 62
147 156 152 154 159 162 150 126 119 111 122 121 121 125 122 119 116 116 114 113 111 108 107 106 105 104 100 99 100 100 100 98 97 96 95 94 92 91 88 86 89 91 92 90 86 78 67 57 47 41 38 39 39 38 35 37 58 81 96 100 100 102 103 108 106 100 96 91 95 100 100 100 100 102 101 99 97 93 87 84 85 83 73 66 60
146 152 151 153 155 159 145 123 115 115 126 122 123 124 121 118 115 113 110 111 110 110 109 107 104 101 100 101 101 102 101 99 97 96 94 93 91 91 91 89 88 89 90 87 83 74 63 54 44 39 43 51 53 48 40 47 72 97 106 106 106 105 106 107 102 97 93 84 83 82 85 93 95 96 100 98 96 95 93 90 88 82 74 67 59
144 150 150 151 153 156 142 121 111 118 128 124 126 124 121 119 115 113 112 113 112 112 109 105 103 101 103 104 105 104 102 101 98 97 96 93 92 92 95 97 93 90 91 89 82 73 60 48 44 43 48 58 64 55 44 55 82 103 110 111 109 109 111 109 102 96 88 78 73 66 57 79 94 96 97 97 95 93 88 84 82 79 72 65 58
143 146 149 153 152 152 139 120 112 121 129 128 129 127 125 120 117 115 114 114 112 110 107 105 105 105 107 107 108 106 103 102 100 98 97 96 94 92 95 97 96 94 95 90 81 75 59 45 47 45 45 52 56 52 50 65 88 106 112 114 108 107 112 111 104 92 82 72 68 71 56 59 89 97 96 95 93 88 81 74 68 64 63 58 54
139 140 145 155 152 149 139 120 114 122 132 132 132 132 130 124 121 117 114 113 111 109 108 109 109 110 110 109 108 107 106 103 101 97 95 95 93 90 91 91 91 95 92 85 80 76 61 47 44 41 37 42 50 53 59 73 91 107 112 114 105 100 103 103 99 90 83 76 73 88 83 49 79 91 91 90 88 85 80 74 65 55 54 51 47
137 137 140 153 152 148 137 124 117 122 133 136 137 137 135 129 122 117 115 114 114 113 113 114 114 114 113 113 110 108 106 104 103 96 94 93 90 89 90 86 84 91 88 80 78 71 56 35 28 40 44 51 59 60 66 78 93 105 110 110 101 96 98 98 96 89 82 79 83 91 80 35 59 83 82 82 81 78 77 74 69 53 49 45 39
138 137 144 152 150 148 137 128 120 122 133 138 142 141 137 131 124 120 119 118 119 119 118 119 118 117 117 116 111 110 107 104 101 93 91 89 85 86 81 72 69 70 51 29 31 23 12 3 36 63 65 69 71 70 75 84 94 104 107 105 98 97 98 94 88 79 75 76 89 102 104 71 46 77 74 75 75 66 64 63 62 51 45 41 32
138 137 151 154 148 147 138 131 123 123 131 138 142 140 134 127 125 125 124 125 124 123 124 123 122 121 120 118 114 111 106 100 94 86 78 70 58 43 16 3 357 330 331 313 321 323 333 32 81 86 82 83 82 81 84 89 95 103 105 103 98 98 97 91 81 72 68 68 100 127 131 122 71 72 70 70 66 56 52 50 52 45 41 37 30
137 135 151 153 148 146 139 133 125 124 130 136 139 135 126 123 126 127 128 129 127 127 127 127 126 126 124 119 116 110 101 93 81 69 47 28 12 359 349 346 349 345 343 317 310 302 20 85 99 101 96 91 88 86 89 92 95 100 104 102 99 102 101 96 85 72 64 64 87 95 89 77 66 65 65 64 57 50 48 46 44 37 33 28 24
135 139 155 152 147 146 140 134 128 127 130 133 136 133 125 123 128 129 131 132 131 132 131 131 130 131 132 124 118 110 96 83 52 20 357 350 353 352 18 27 41 65 107 113 116 117 92 106 110 106 101 93 88 87 89 93 95 98 101 101 100 104 105 98 88 75 70 82 80 83 79 29 51 60 63 60 55 50 46 42 36 29 24 18 15
139 149 162 151 147 146 142 138 133 129 130 133 135 135 127 125 130 132 135 135 134 137 137 137 136 138 136 128 124 115 98 66 355 324 328 341 2 15 40 51 72 90 115 115 117 113 105 115 114 108 103 95 90 88 90 92 96 100 102 102 102 103 103 91 83 81 85 88 78 87 172 206 43 54 56 54 53 46 43 37 31 24 18 13 8
145 153 158 151 148 145 144 143 137 132 132 133 137 139 131 129 134 136 137 139 139 142 142 142 142 143 139 135 137 133 143 14 326 324 346 6 31 36 38 46 79 98 109 108 112 112 116 120 116 112 107 99 92 90 91 93 98 102 105 105 108 110 107 86 71 72 83 82 88 64 314 13 45 54 49 49 51 43 41 35 26 20 14 8 2
145 148 153 155 151 148 149 147 142 136 133 131 137 141 138 136 138 140 140 141 143 146 147 148 149 151 151 150 157 179 206 269 337 27 43 50 57 54 49 51 73 92 98 97 98 104 121 124 120 117 112 107 98 94 93 96 99 101 106 106 112 115 112 98 82 33 64 46 76 78 312 2 30 30 42 47 48 44 38 32 21 15 8 2 358
140 144 151 158 155 155 153 148 144 136 134 134 138 144 145 142 141 143 142 143 146 151 153 154 159 162 169 169 174 197 204 189 60 63 70 70 70 63 58 61 68 79 86 86 91 100 120 125 124 123 118 114 105 102 95 95 98 100 106 103 106 105 112 109 100 20 51 35 52 91 276 348 22 4 23 38 36 35 24 21 16 10 2 356 352
138 140 144 151 153 159 155 148 144 139 140 139 140 146 149 148 145 145 145 149 152 156 159 162 166 169 175 171 195 185 165 125 83 74 78 78 72 68 63 65 69 73 74 72 82 98 115 123 127 128 125 121 116 112 101 98 97 101 108 105 103 95 106 105 95 57 311 131 57 103 257 332 8 345 358 20 16 18 13 10 7 2 355 349 345
138 140 140 143 147 154 152 148 146 145 145 143 145 147 151 151 148 149 150 154 158 163 167 171 174 178 183 176 241 175 140 107 86 81 79 79 72 67 63 62 65 67 68 64 74 96 113 121 126 133 132 126 125 120 114 110 99 112 115 112 113 100 104 93 90 54 320 72 67 241 259 326 344 329 329 347 2 1 0 358 356 350 345 341 339
140 141 142 145 148 150 148 148 149 149 146 150 152 148 153 153 151 151 153 158 161 164 168 170 175 172 170 148 138 122 125 112 88 85 80 74 67 63 63 61 59 59 60 60 65 90 112 121 124 134 135 128 126 124 127 126 117 145 142 124 123 116 104 81 79 331 313 47 126 256 288 332 323 313 311 320 337 333 342 343 341 338 337 337 333
140 140 143 148 149 147 145 146 149 148 145 161 161 152 154 155 155 154 156 160 160 164 164 163 177 172 153 140 117 97 104 90 62 74 90 79 63 57 60 58 58 57 54 57 58 74 98 114 119 128 135 119 99 94 119 139 182 269 274 257 134 158 111 65 46 266 282 311 247 248 292 330 312 314 309 314 320 318 328 325 328 330 331 331 327
140 141 144 148 148 143 142 144 145 145 145 160 169 156 152 156 158 156 157 160 160 161 148 127 156 159 147 136 113 94 96 78 52 63 75 68 61 51 51 52 53 54 53 54 52 56 66 76 95 109 70 46 16 354 333 323 293 304 307 304 297 250 295 31 267 262 283 307 265 260 304 327 313 321 314 318 320 316 322 319 324 326 325 326 327
142 143 144 148 147 142 143 142 141 145 146 150 159 151 149 155 156 154 154 153 148 138 126 112 107 119 123 116 101 96 100 43 47 90 49 38 49 38 31 37 36 39 44 46 43 41 38 9 324 304 320 343 354 351 312 323 318 310 311 311 312 308 324 291 238 258 276 273 261 274 307 318 315 322 316 320 317 317 324 323 327 324 323 325 327
143 144 144 147 144 144 146 147 149 145 143 141 137 137 140 147 149 151 152 146 142 137 136 133 109 118 121 101 86 91 112 29 51 90 77 49 51 31 24 23 16 20 24 31 32 22 16 5 338 320 312 321 19 37 299 308 313 309 299 280 312 324 284 275 277 281 277 263 264 281 304 313 317 318 313 316 314 319 324 326 328 324 323 323 324
146 145 144 143 144 146 145 153 154 137 138 137 130 134 138 142 148 154 152 147 153 160 160 158 151 147 138 101 87 91 109 84 69 88 66 60 51 31 23 10 4 8 9 14 12 5 356 349 349 336 322 336 27 302 265 288 301 311 308 292 311 301 267 276 288 276 277 272 267 281 301 308 312 311 309 309 307 313 316 320 322 322 321 314 314
143 143 143 144 146 143 143 153 147 138 144 139 140 147 147 150 156 157 151 151 164 174 171 163 152 138 130 121 131 148 121 175 257 319 7 22 359 11 5 357 7 1 4 11 350 340 344 341 339 336 345 347 298 251 243 254 277 298 299 286 278 267 264 271 277 268 263 265 269 280 293 299 306 306 304 302 303 307 308 313 314 314 311 303 303
142 144 147 148 144 142 147 150 145 146 147 146 151 148 151 158 156 160 155 158 166 162 159 152 140 134 150 157 170 191 172 192 273 255 160 308 316 352 5 4 18 348 348 23 335 319 339 337 323 324 341 272 260 256 251 247 249 261 268 272 270 265 267 265 268 270 266 264 270 276 283 290 300 303 302 302 303 306 310 312 311 306 302 300 298
146 148 151 149 143 148 151 150 149 148 149 155 153 143 155 162 153 157 155 158 160 152 158 162 157 165 175 177 191 205 186 221 262 256 252 16 322 337 21 358 2 325 311 346 301 304 321 303 289 296 296 266 262 259 260 260 256 255 251 257 268 272 270 265 264 270 273 271 267 270 274 281 290 293 294 298 300 304 307 308 308 304 305 309 301
148 148 149 150 148 153 152 151 152 151 155 155 146 147 161 158 153 158 154 155 153 156 171 169 164 171 177 183 193 198 193 254 277 295 320 335 300 300 7 326 333 317 304 315 319 313 304 279 274 276 277 272 268 265 266 270 268 268 264 259 261 266 266 269 270 269 271 269 268 273 277 278 281 282 284 290 295 299 300 302 301 293 296 309 302
150 150 150 152 153 154 153 154 155 155 154 147 148 158 159 152 153 157 153 151 151 162 168 155 159 171 176 179 192 199 188 222 267 287 299 300 296 309 325 308 305 289 297 318 307 296 292 288 287 284 282 277 275 275 273 272 272 275 278 272 266 266 269 275 277 275 274 271 269 276 279 279 280 278 279 286 290 294 294 296 296 285 283 299 300
152 153 151 155 157 155 156 158 157 157 151 150 158 157 151 151 152 155 153 152 158 162 158 159 164 168 177 177 189 206 201 219 255 280 286 295 306 319 319 314 312 303 305 307 294 290 286 282 282 282 286 280 274 276 277 276 277 276 274 276 275 273 276 282 282 278 279 275 269 274 280 284 286 280 280 284 288 290 289 289 290 285 279 286 291
154 154 155 159 157 154 160 162 159 158 155 155 156 150 151 157 158 161 161 159 157 150 152 166 158 158 175 176 197 210 224 239 266 297 298 306 313 318 315 319 312 310 315 305 302 307 295 283 275 269 275 275 266 269 279 279 280 281 278 279 277 272 276 280 278 277 278 276 272 274 279 285 289 286 285 285 284 284 284 285 284 282 277 276 280
155 155 159 160 155 158 163 161 159 157 155 155 154 156 160 159 159 163 163 156 144 142 155 156 141 139 130 147 214 194 230 254 280 313 326 325 328 333 324 321 317 316 319 311 309 312 306 299 289 283 288 285 277 279 285 282 282 285 283 285 280 276 280 279 280 281 278 278 279 276 274 281 288 291 292 289 286 284 281 280 278 277 273 273 276
156 160 161 157 155 161 164 159 155 152 154 159 161 164 162 153 152 156 150 142 139 142 144 133 126 122 115 136 132 104 200 285 351 349 4 348 345 345 339 333 330 331 327 322 322 323 323 315 307 306 302 293 289 289 289 286 287 289 287 289 286 283 284 281 284 287 283 283 282 279 274 276 287 293 293 292 290 289 285 279 274 272 268 270 272
158 162 162 161 161 162 164 165 161 157 160 163 165 163 153 147 148 148 139 133 135 133 129 130 130 124 110 93 76 69 21 357 329 359 21 4 360 353 350 345 337 337 333 329 328 325 322 316 314 313 302 301 300 294 291 287 286 287 286 286 285 285 285 283 285 285 286 285 282 284 283 282 283 284 286 289 291 291 289 284 277 271 266 267 267
160 163 166 167 168 166 167 170 166 164 164 162 164 156 144 145 147 144 135 129 130 127 127 132 124 109 81 64 63 57 32 358 347 21 38 16 1 345 339 331 327 331 326 322 321 316 310 308 310 304 299 306 305 294 291 288 287 287 284 283 282 282 282 283 283 283 285 284 283 285 283 283 280 278 281 286 289 289 289 287 281 274 270 267 264
165 169 169 170 170 170 169 168 168 167 162 159 159 152 145 144 142 137 131 128 127 125 127 122 108 93 84 73 54 63 41 37 30 353 8 1 336 320 312 309 314 319 315 315 317 313 306 302 301 299 299 301 300 301 297 292 292 290 287 287 286 285 285 284 283 284 284 281 281 279 275 278 279 280 281 279 281 284 285 284 280 278 275 269 264
172 175 171 171 168 168 169 166 168 165 159 156 154 152 145 137 133 128 125 126 122 121 125 121 110 97 94 76 39 291 227 75 303 289 311 314 306 302 300 307 312 310 309 309 311 312 306 302 298 297 300 300 303 306 300 296 296 292 290 292 291 290 291 289 286 286 286 284 284 283 283 284 279 279 282 280 279 283 284 282 279 278 276 271 265
179 177 167 165 161 163 165 161 160 157 153 152 152 147 137 129 126 121 121 125 124 125 123 117 112 92 73 53 40 302 211 351 298 297 302 308 310 305 305 314 316 311 311 308 308 309 304 303 301 300 302 302 304 302 296 298 298 295 293 292 292 293 294 292 289 289 288 288 287 286 289 289 283 279 281 280 279 280 280 279 279 277 275 273 266
177 170 154 156 159 156 153 151 150 156 160 156 150 137 128 125 119 117 118 118 119 122 110 100 97 86 77 58 55 72 69 31 329 311 301 316 321 320 320 320 318 313 311 307 308 310 309 312 310 309 311 309 306 302 300 302 303 304 304 301 298 295 294 294 295 294 288 287 288 290 291 291 288 284 281 281 280 281 280 279 280 276 273 274 270
161 156 155 161 156 147 146 151 152 155 168 160 140 120 116 116 114 113 112 110 108 109 105 105 102 97 99 80 67 73 58 42 26 347 323 329 325 324 320 319 323 315 309 309 312 316 315 317 315 313 314 313 313 310 308 310 312 314 314 312 311 307 302 301 305 305 297 292 291 291 290 288 286 283 283 288 287 286 284 281 280 278 273 274 274
151 154 160 157 147 149 157 159 151 154 176 168 136 121 116 111 113 113 107 105 100 98 120 151 147 145 147 135 124 124 102 79 74 8 286 283 306 317 312 311 310 305 306 304 302 306 310 312 314 315 315 314 316 314 313 317 320 318 315 312 310 309 305 299 304 308 303 297 292 288 287 287 287 289 293 297 295 292 288 280 277 278 274 271 273
144 148 147 146 147 156 161 159 157 164 175 164 136 127 121 116 119 117 111 106 104 114 150 182 176 161 161 162 164 179 168 181 221 225 237 238 237 252 270 275 269 268 271 269 273 280 285 291 301 309 313 313 315 314 315 321 321 315 314 312 311 311 303 289 289 298 300 296 293 289 284 286 293 300 303 299 297 295 289 280 272 273 272 269 270
143 139 136 145 152 156 152 149 155 160 152 140 133 130 125 122 117 109 115 122 126 125 101 102 114 122 158 197 242 239 243 265 264 259 263 266 264 254 246 252 255 255 257 262 268 271 275 281 290 300 301 302 309 313 313 317 317 315 316 313 312 313 308 298 289 297 306 303 297 287 281 285 290 295 295 290 289 289 288 286 277 272 271 268 266
143 139 141 144 142 145 143 139 142 140 127 116 116 118 117 117 108 94 82 74 92 83 65 98 133 153 194 234 274 272 270 281 285 283 283 287 293 288 274 265 263 264 268 274 277 276 279 283 285 289 294 299 300 294 295 308 314 317 318 312 310 307 305 314 314 307 308 302 290 282 285 291 292 295 297 293 289 285 284 285 281 276 271 268 267
149 143 149 158 149 143 144 145 140 130 120 112 107 102 96 90 79 66 55 56 67 57 55 119 168 194 233 269 292 289 278 279 281 283 285 288 292 296 298 294 288 280 276 280 283 281 284 289 288 288 295 304 304 299 296 301 303 303 309 310 311 307 303 312 315 309 306 301 293 289 291 292 289 293 297 294 290 286 283 281 278 278 274 272 270
161 154 155 168 164 150 141 143 145 135 122 114 108 103 94 85 67 44 41 65 94 111 140 157 179 220 262 278 282 277 272 271 276 284 290 290 291 294 291 295 310 302 293 291 292 288 285 291 297 296 299 298 299 305 308 306 300 297 300 301 299 298 301 307 309 307 305 303 299 295 293 292 288 290 292 289 287 285 283 281 277 277 276 275 273
164 161 156 154 158 157 136 127 139 140 125 107 97 104 96 86 88 73 68 110 158 211 219 213 227 253 267 267 259 263 271 277 284 289 291 289 292 296 295 302 318 325 337 333 315 308 296 292 298 303 308 302 298 308 313 309 304 299 290 283 282 285 293 302 304 303 305 303 302 300 298 296 293 291 290 288 288 286 284 284 281 278 275 275 275
158 158 155 144 141 140 127 131 149 141 117 91 80 95 94 83 95 107 119 160 212 236 239 236 245 253 258 261 258 266 280 289 293 293 295 302 310 318 334 357 12 31 26 358 337 352 352 336 329 327 327 322 315 314 314 311 308 305 295 284 283 287 294 299 299 300 303 302 301 302 301 298 294 294 293 291 290 288 287 288 287 281 275 273 273
157 157 154 145 138 126 122 144 157 133 113 103 89 85 85 84 87 95 105 130 208 230 236 238 245 238 243 269 279 288 296 300 305 319 358 15 18 17 33 45 52 64 57 30 21 22 18 12 4 358 351 339 323 313 310 312 313 309 306 307 307 306 306 304 304 307 308 307 306 306 307 305 301 299 297 296 294 291 289 288 287 283 278 275 272
161 157 152 145 141 127 120 131 128 115 112 106 93 79 75 80 84 85 89 89 102 128 181 210 219 209 240 267 287 298 301 311 346 39 43 37 37 40 52 58 58 64 62 52 37 26 25 21 11 5 2 355 345 336 323 323 324 312 310 321 324 319 317 315 317 319 315 316 316 313 313 311 309 307 304 301 299 295 291 288 286 283 279 276 272
160 154 148 142 137 123 117 117 107 105 101 90 85 78 72 76 78 76 78 86 96 103 161 196 196 199 251 273 291 298 331 31 44 51 40 39 53 60 67 68 64 63 59 53 40 32 36 30 13 8 7 3 358 356 348 339 334 327 331 339 334 326 324 322 320 320 319 318 316 314 313 313 311 309 308 305 302 298 294 292 289 283 279 278 276